[Iaude] MPEC M91: 2004 EQ95 = 2019 CK30 [a=45.71, e=0.11, i=4.5, H=7.82]

mpec at cfa.harvard.edu mpec at cfa.harvard.edu
Thu Jun 27 04:29:30 EDT 2024


M.P.E.C. 2024-M91                                 Issued 2024 June 27, 08:21 UT

     The Minor Planet Electronic Circulars contain information on unusual
         minor planets, routine data on comets and natural satellites,
         and occasional editorial announcements.  They are published
    on behalf of Division F of the International Astronomical Union by the
          Minor Planet Center, Smithsonian Astrophysical Observatory,
                          Cambridge, MA 02138, U.S.A.
			  
             Prepared using the Tamkin Foundation Computer Network

                              MPC at CFA.HARVARD.EDU
            URL https://www.minorplanetcenter.net/    ISSN 1523-6714

                             2004 EQ95 = 2019 CK30                              


Additional Observations:
     K04E95Q &C2013 04 03.21908211 42 35.98 +06 20 42.9                WEM091W84
     K04E95Q 1C2014 02 28.49201911 50 36.80 +05 32 01.4                WEM091T09
     K04E95Q 1C2014 02 28.50624111 50 36.75 +05 32 01.8                WEM091T09
     K04E95Q 1C2014 02 28.52530411 50 36.66 +05 32 02.4                WEM091T09
     K04E95Q 1C2014 02 28.56743611 50 36.47 +05 32 03.7                WEM091T09
     K04E95Q 1C2018 04 22.37005712 08 45.40 +03 46 00.0                WEM091T09
     K04E95Q 1C2018 04 22.38426612 08 45.35 +03 46 00.2                WEM091T09

Observer details:
T09 Subaru Telescope, Maunakea.  Observer .  Measurer S. Deen.  8.3-m Subaru
    Telescope + CCD.
W84 Cerro Tololo-DECam.  Observer .  Measurer S. Deen.  4.0-m reflector + CCD.

Orbital elements:
2004 EQ95 = 2019 CK30
Epoch 2024 Mar. 31.0 TT = JDT 2460400.5                 Alexandersen            
M 352.49966              (2000.0)            P               Q                  
n   0.00318933     Peri.   87.49829     -0.94128004     +0.32958830             
a  45.7091789      Node   111.73784     -0.33255049     -0.86758068             
e   0.1071747      Incl.    4.52201     -0.05832711     -0.37239135             
P 309              H    7.82          G   0.15           U   4                  
Residuals in seconds of arc
040315 695  0.2-  0.3-    180422 T09  0.0   0.0     190303 T09  0.2-  0.2+
040316 695  0.0   0.0     180422 T09  0.1+  0.1-    190303 T09  0.1+  0.1+
040316 695  0.0   0.1-    190205 T09  0.1+  0.3-    190303 T09  0.3+  0.1+
130403 W84  0.1+  0.2+    190205 T09  0.1-  0.1+    190404 T09  0.2+  0.1+
140228 T09  0.1-  0.0     190205 T09  0.1-  0.1-    190404 T09  0.1-  0.0
140228 T09  0.1+  0.0     190205 T09  0.0   0.1+    190404 T09  0.1+  0.2+
140228 T09  0.0   0.0     190303 T09  0.2+  0.0     190404 T09  0.1-  0.0
140228 T09  0.1-  0.1+    190303 T09  0.0   0.1+    190404 T09  0.1-  0.1+

Ephemeris:
2004 EQ95                a,e,i = 45.71, 0.11, 5                  q = 40.8103
Date    TT    R. A. (2000) Decl.     Delta      r    Elong.  Phase     V
2024 05 28    12 39 40.6 +00 36 33  40.3152 40.8603   121.9     1.2    24.1
...
2024 06 12    12 39 17.7 +00 37 24  40.5423 40.8597   107.5     1.4    24.1
...
2024 06 20    12 39 13.2 +00 36 59  40.6723 40.8593    99.9     1.4    24.1
...
2024 06 26    12 39 13.5 +00 36 16  40.7720 40.8591    94.2     1.4    24.1
2024 06 27    12 39 13.8 +00 36 07  40.7887 40.8590    93.3     1.4    24.1
2024 06 28    12 39 14.3 +00 35 57  40.8054 40.8590    92.3     1.4    24.1
...
2024 07 04    12 39 18.8 +00 34 47  40.9059 40.8587    86.6     1.4    24.1
...
2024 07 12    12 39 29.7 +00 32 42  41.0389 40.8584    79.1     1.4    24.1
...
2024 07 27    12 40 04.8 +00 27 21  41.2769 40.8578    65.0     1.3    24.1

M. P. C. Staff               (C) Copyright 2024 MPC           M.P.E.C. 2024-M91





More information about the Iaude mailing list